TimeCDT,TemperatureF,Dew PointF,Humidity,Sea Level PressureIn,VisibilityMPH,Wind Direction,Wind SpeedMPH,Gust SpeedMPH,PrecipitationIn,Events,Conditions,WindDirDegrees,DateUTC
12:53 AM,45.0,33.1,63,30.13,10.0,SSE,5.8,-,N/A,,Clear,150,2012-10-11 05:53:00
1:53 AM,44.1,33.1,65,30.12,10.0,South,6.9,-,N/A,,Clear,170,2012-10-11 06:53:00
2:53 AM,44.1,33.1,65,30.12,10.0,SE,5.8,-,N/A,,Clear,130,2012-10-11 07:53:00
3:53 AM,43.0,33.1,68,30.10,10.0,ESE,5.8,-,N/A,,Clear,120,2012-10-11 08:53:00
4:53 AM,43.0,33.1,68,30.09,10.0,SE,5.8,-,N/A,,Mostly Cloudy,130,2012-10-11 09:53:00
5:53 AM,39.9,33.1,77,30.08,10.0,SE,5.8,-,N/A,,Clear,130,2012-10-11 10:53:00
6:53 AM,41.0,33.1,73,30.08,10.0,ESE,4.6,-,N/A,,Clear,120,2012-10-11 11:53:00
7:53 AM,42.1,34.0,73,30.09,10.0,ESE,4.6,-,N/A,,Clear,120,2012-10-11 12:53:00
8:53 AM,50.0,39.9,68,30.09,10.0,SE,3.5,-,N/A,,Clear,130,2012-10-11 13:53:00
9:53 AM,61.0,44.1,54,30.08,10.0,SSW,13.8,20.7,N/A,,Clear,200,2012-10-11 14:53:00
10:53 AM,64.9,50.0,58,30.08,10.0,SSW,13.8,-,N/A,,Clear,200,2012-10-11 15:53:00
11:53 AM,68.0,52.0,56,30.07,10.0,South,11.5,-,N/A,,Scattered Clouds,190,2012-10-11 16:53:00
12:53 PM,72.0,52.0,49,30.06,10.0,South,12.7,-,N/A,,Scattered Clouds,190,2012-10-11 17:53:00
1:53 PM,73.0,53.1,49,30.01,10.0,SSW,8.1,-,N/A,,Clear,210,2012-10-11 18:53:00
3:53 PM,73.0,54.0,51,30.01,10.0,South,10.4,-,N/A,,Overcast,190,2012-10-11 20:53:00
5:53 PM,71.1,55.9,59,30.02,10.0,SE,9.2,-,N/A,,Overcast,130,2012-10-11 22:53:00
6:53 PM,69.1,55.9,63,30.05,10.0,ESE,6.9,-,N/A,,Overcast,110,2012-10-11 23:53:00
8:53 PM,66.0,55.9,70,30.10,10.0,East,5.8,-,N/A,,Overcast,80,2012-10-12 01:53:00
9:53 PM,64.9,55.9,73,30.12,10.0,ENE,4.6,-,N/A,,Overcast,60,2012-10-12 02:53:00
10:53 PM,64.9,55.9,73,30.15,10.0,NNE,5.8,-,N/A,,Overcast,20,2012-10-12 03:53:00
11:53 PM,60.1,37.0,42,30.18,10.0,NNE,11.5,-,N/A,,Overcast,30,2012-10-12 04:53:00